Location: Slanting_Bridge
(35.6330°N, 80.9830°W)
Time: 10:08:27
(UTC-04:00)

Hamsat - Visible Passes

Search period start: 01 September 2015 00:00
Search period end: 11 September 2015 00:00
Orbit: 588 x 623 km, 97.6° (Epoch: 31 August)

Date Brightness Start Highest point End Pass type
(mag) Time Alt. Az. Time Alt. Az. Time Alt. Az.
01 Sep ? 05:26:09 10° ENE 05:27:47 12° E 05:29:39 10° ESE visible
02 Sep ? 05:37:56 10° NE 05:40:42 18° E 05:43:35 10° SE visible
03 Sep ? 05:50:09 10° NE 05:53:34 25° E 05:57:02 10° SSE visible
04 Sep ? 06:02:34 10° NNE 06:06:23 35° E 06:10:14 10° SSE visible
05 Sep ? 06:15:07 10° NNE 06:19:11 51° E 06:23:14 10° S visible
06 Sep ? 06:27:47 10° NNE 06:31:57 76° E 06:36:06 10° S visible
08 Sep ? 05:20:33 10° E 05:21:09 10° E 05:22:03 10° ESE visible
09 Sep ? 05:31:42 10° ENE 05:34:04 15° E 05:36:37 10° SE visible
10 Sep ? 05:43:46 10° NE 05:46:56 21° E 05:50:12 10° SE visible
